{"data":{"norad_id":52658,"epoch":"2026-09-19T15:30:00.331488Z","epoch_age_seconds":140322,"freshness":"FRESH","line1":"1 52658U 22053C   26262.64583717 -.00000398  00000+0 -69034-5 0  9995","line2":"2 52658  53.1623   2.7612 0001220  87.4030 272.7101 15.08833721240513","mean_motion":15.08833721,"eccentricity":0.000122,"inclination_deg":53.1623,"raan_deg":2.7612,"arg_perigee_deg":87.403,"mean_anomaly_deg":272.7101,"bstar":-6.9034e-6,"rev_number":24051,"period_min":95.43795184042,"perigee_km":538.91859767277,"apogee_km":540.60656517064,"semimajor_km":6917.8995814217,"source":"CELESTRAK","updated_at":"2026-09-20T09:00:40.100409Z"}}